TimeEDT,TemperatureF,Dew PointF,Humidity,Sea Level PressureIn,VisibilityMPH,Wind Direction,Wind SpeedMPH,Gust SpeedMPH,PrecipitationIn,Events,Conditions,WindDirDegrees,DateUTC
12:54 AM,60.1,57.0,90,30.17,10.0,SW,3.5,-,N/A,,Scattered Clouds,230,2013-07-31 04:54:00
1:54 AM,59.0,57.0,93,30.17,10.0,WSW,3.5,-,N/A,,Scattered Clouds,240,2013-07-31 05:54:00
2:54 AM,57.9,55.9,93,30.16,10.0,SW,3.5,-,N/A,,Partly Cloudy,230,2013-07-31 06:54:00
3:54 AM,57.0,55.9,96,30.16,9.0,SW,4.6,-,N/A,,Partly Cloudy,230,2013-07-31 07:54:00
4:54 AM,57.9,55.0,90,30.16,10.0,SW,4.6,-,N/A,,Partly Cloudy,220,2013-07-31 08:54:00
5:54 AM,57.0,54.0,89,30.16,10.0,SW,4.6,-,N/A,,Scattered Clouds,230,2013-07-31 09:54:00
6:54 AM,57.9,55.9,93,30.16,10.0,SSW,4.6,-,N/A,,Mostly Cloudy,210,2013-07-31 10:54:00
7:54 AM,61.0,57.0,87,30.16,10.0,SSW,5.8,-,N/A,,Mostly Cloudy,210,2013-07-31 11:54:00
8:54 AM,64.9,57.0,75,30.16,10.0,SW,8.1,-,N/A,,Overcast,220,2013-07-31 12:54:00
9:54 AM,66.9,57.9,73,30.16,10.0,SW,4.6,-,N/A,,Overcast,220,2013-07-31 13:54:00
10:54 AM,72.0,59.0,64,30.14,10.0,South,5.8,-,N/A,,Overcast,180,2013-07-31 14:54:00
11:54 AM,75.0,55.0,50,30.13,10.0,SW,8.1,-,N/A,,Overcast,220,2013-07-31 15:54:00
12:54 PM,77.0,55.0,47,30.10,10.0,West,3.5,-,N/A,,Mostly Cloudy,270,2013-07-31 16:54:00
1:54 PM,78.1,57.0,48,30.08,10.0,South,5.8,-,N/A,,Mostly Cloudy,190,2013-07-31 17:54:00
2:54 PM,80.1,57.0,45,30.06,10.0,Calm,Calm,-,N/A,,Mostly Cloudy,0,2013-07-31 18:54:00
3:54 PM,80.1,57.9,47,30.05,10.0,WSW,5.8,-,N/A,,Overcast,240,2013-07-31 19:54:00
4:54 PM,80.1,57.0,45,30.03,10.0,Variable,4.6,-,N/A,,Mostly Cloudy,0,2013-07-31 20:54:00
5:54 PM,75.9,61.0,60,30.02,10.0,North,10.4,-,N/A,,Mostly Cloudy,360,2013-07-31 21:54:00
6:54 PM,75.0,62.1,64,30.01,10.0,NNE,8.1,-,N/A,,Mostly Cloudy,20,2013-07-31 22:54:00
7:54 PM,73.0,63.0,71,29.99,10.0,North,5.8,-,N/A,,Mostly Cloudy,10,2013-07-31 23:54:00
8:54 PM,71.1,64.9,81,29.99,10.0,North,5.8,-,N/A,,Mostly Cloudy,360,2013-08-01 00:54:00
9:54 PM,70.0,64.9,84,29.99,10.0,NNW,5.8,-,N/A,,Mostly Cloudy,340,2013-08-01 01:54:00
10:54 PM,70.0,64.9,84,29.97,10.0,North,3.5,-,N/A,,Mostly Cloudy,350,2013-08-01 02:54:00
11:54 PM,66.0,64.0,93,29.95,8.0,SSW,4.6,-,N/A,,Scattered Clouds,200,2013-08-01 03:54:00